RH
15 15 28 55 73 76 74 58 66 60 57 37 41 40 33 29 22 19 16 14 14 17 18 16 16 17 14 11 8 7 7 7 8 8 8 8 7 8 8 8 8 9 11 13 15 17 19 19 18
18 16 16 30 44 46 72 75 71 65 55 36 40 42 38 32 24 22 18 20 22 26 29 31 29 29 26 19 13 10 9 8 8 8 8 8 8 8 8 9 11 13 15 16 16 17 17 18 18
12 19 18 15 23 22 62 85 91 73 63 44 37 44 40 40 32 25 23 25 31 33 30 28 28 30 31 30 25 18 12 10 9 8 8 8 8 8 10 11 14 17 18 16 18 20 22 21 20
8 17 19 12 9 19 43 79 95 80 65 63 45 41 44 42 44 32 27 30 32 33 31 29 28 31 33 34 35 34 23 13 10 9 8 8 8 9 12 17 18 18 20 19 21 23 23 20 15
17 9 16 10 10 11 35 64 88 96 76 73 58 40 46 43 45 43 36 37 36 36 34 31 31 36 39 41 40 39 35 26 12 9 8 8 8 10 13 21 22 20 20 21 23 21 19 16 11
15 16 7 5 14 11 22 52 79 96 89 87 64 49 44 47 44 49 43 42 41 41 39 37 37 38 41 40 38 38 41 34 17 10 9 9 9 10 16 21 23 21 21 23 24 22 18 16 9
6 14 13 9 17 15 15 40 66 79 96 86 66 64 45 53 46 52 47 45 45 43 42 41 43 46 45 43 42 39 38 40 20 11 10 9 9 11 16 21 22 21 22 22 22 22 18 13 8
7 6 14 14 8 16 19 21 61 71 92 88 78 65 48 53 52 50 50 49 50 46 44 47 50 52 48 42 42 36 46 47 23 13 11 10 9 10 17 20 20 22 22 20 22 20 17 10 7
11 7 7 13 13 13 22 18 41 72 75 89 86 64 56 53 59 56 51 54 53 52 50 50 53 54 50 46 45 37 47 48 33 18 13 12 11 10 12 14 19 23 21 22 24 18 13 8 8
10 11 6 9 14 15 18 22 19 68 74 79 93 80 66 61 59 65 61 56 56 55 55 56 60 57 48 47 48 44 26 52 39 21 15 14 15 12 11 13 19 21 23 24 20 17 12 8 8
36 11 9 6 11 15 16 21 20 36 76 76 91 97 87 83 76 68 74 61 60 60 60 63 61 60 52 52 52 46 30 49 48 31 30 34 29 15 13 13 19 23 24 25 19 16 9 8 8
100 24 14 8 8 12 16 17 22 21 65 86 83 92 89 93 94 83 70 74 71 68 65 62 60 60 58 54 58 50 37 56 54 36 30 21 18 18 15 15 22 22 25 23 18 14 9 9 8
100 94 30 15 10 10 14 16 22 22 29 88 83 66 96 96 95 89 79 80 81 73 73 67 65 66 64 59 66 52 37 49 51 37 25 28 24 25 19 17 19 24 24 20 18 10 9 9 9
99 100 91 28 16 11 14 16 17 22 22 67 90 87 95 92 99 84 83 86 85 79 78 68 66 67 66 56 57 57 43 43 35 32 30 38 40 27 18 18 20 25 24 20 14 10 9 9 9
98 100 92 58 28 16 13 15 16 21 23 43 92 89 96 97 87 99 94 85 85 89 87 79 68 67 60 56 63 63 45 43 40 28 28 34 39 32 21 24 25 24 23 17 12 10 9 9 9
96 93 100 76 40 25 15 14 15 18 23 30 79 96 95 83 94 96 74 79 93 78 73 72 78 68 66 67 65 65 53 42 43 26 22 29 32 30 30 26 23 24 20 14 12 11 10 10 10
99 92 88 96 51 31 18 16 14 15 22 27 43 86 100 96 93 96 96 93 94 82 75 73 72 58 63 74 60 70 74 65 43 41 24 20 27 31 31 27 26 22 18 14 12 12 10 10 10
91 95 100 84 83 36 22 16 15 13 17 25 45 72 87 100 98 86 92 95 96 93 96 96 81 70 73 66 65 71 76 75 50 43 32 18 19 27 29 28 25 22 17 14 14 12 10 10 10
90 99 93 92 63 66 24 19 18 14 13 24 42 92 92 100 81 97 83 92 91 86 84 97 95 89 95 80 69 72 79 77 47 42 34 20 14 20 24 25 24 22 18 15 15 13 11 10 10
86 91 78 77 74 62 51 22 24 18 13 18 41 70 74 85 87 98 76 98 87 86 96 96 95 94 93 95 82 79 86 75 43 42 36 26 17 16 18 20 20 18 17 16 16 14 12 9 10
79 94 83 78 80 65 57 32 22 23 14 13 34 55 64 55 46 65 90 95 98 87 84 83 92 96 96 94 89 89 93 78 41 44 45 37 27 18 17 18 19 18 17 16 15 14 11 9 10
82 81 82 85 73 59 54 41 22 24 18 13 17 35 57 61 56 60 60 79 60 56 61 68 97 96 97 91 98 97 80 47 38 38 44 44 37 27 21 19 19 18 17 15 15 13 10 10 11
89 85 82 88 63 50 49 45 28 20 20 17 30 33 40 94 89 96 96 98 74 64 90 89 92 91 87 99 91 83 57 42 38 37 42 37 32 27 23 22 20 18 17 16 13 10 10 11 12
99 97 73 58 88 55 37 33 32 22 19 15 34 56 53 75 97 97 92 97 98 94 100 94 96 90 66 84 69 60 56 39 35 34 38 41 39 35 31 27 22 18 16 11 10 11 12 14 12
99 93 98 69 98 81 38 27 38 24 18 16 16 28 66 71 83 94 92 92 82 81 74 82 76 83 56 66 73 49 39 35 35 36 36 38 36 32 28 22 19 14 11 12 13 14 14 11 11
95 100 100 99 76 88 63 29 23 25 18 14 17 22 34 58 77 75 68 95 90 95 85 71 51 57 52 49 44 37 36 32 36 37 39 37 34 30 26 19 14 13 13 15 15 13 12 14 16
88 93 100 100 82 52 57 48 41 30 21 16 14 15 33 34 45 46 53 76 84 91 67 45 50 44 36 30 30 27 33 36 40 38 37 35 33 25 18 15 14 15 15 14 13 14 16 15 13
80 88 90 80 86 83 58 44 40 45 34 18 15 15 19 24 44 43 42 49 48 46 49 50 57 46 44 30 24 26 37 40 38 33 34 30 23 16 15 16 16 15 15 17 17 16 16 16 18
86 72 66 64 64 74 68 57 39 40 78 51 22 15 13 15 22 39 41 42 52 56 52 44 54 57 50 35 27 31 34 32 32 31 23 19 17 18 17 16 17 19 19 18 18 22 24 26 31
77 78 76 74 68 56 58 61 39 31 57 78 69 32 20 22 21 20 25 25 25 31 37 42 43 48 37 35 35 35 33 30 26 19 18 19 18 18 19 21 21 20 23 28 32 37 42 44 46
Wind_Speed
47 45 45 45 43 43 38 33 29 29 27 22 19 18 14 14 15 15 15 16 15 14 13 12 11 10 8 7 6 4 4 3 3 4 5 6 7 8 9 11 11 12 13 14 15 15 16 18 18
54 51 48 50 50 48 41 35 32 32 27 25 22 19 17 16 15 16 17 16 16 14 14 12 10 8 7 5 3 2 2 2 1 2 3 4 5 6 7 8 9 9 11 14 16 18 19 20 19
59 57 54 55 55 52 43 36 36 34 31 29 24 21 19 16 16 17 18 17 16 16 14 11 8 7 6 5 3 2 1 2 2 2 2 3 3 4 4 6 8 11 14 16 18 19 21 21 20
59 62 61 60 56 55 47 39 37 38 35 33 28 26 21 17 16 18 18 18 17 15 12 9 7 6 6 5 4 5 4 3 3 3 2 2 2 2 2 4 8 11 14 16 18 19 19 19 19
59 62 65 64 60 59 50 44 42 39 37 33 34 25 23 20 18 19 19 18 17 15 11 9 6 6 4 4 4 5 5 6 5 4 4 3 3 4 4 6 8 11 14 16 17 18 20 21 20
67 62 66 67 66 62 51 50 47 42 38 36 36 32 27 24 21 21 19 19 17 14 12 9 6 5 2 1 5 8 7 7 6 5 5 5 6 6 7 9 10 13 14 16 18 20 22 22 21
69 68 60 68 70 67 53 53 51 45 40 38 37 36 30 26 24 24 22 19 18 16 14 10 6 5 2 3 9 10 9 7 6 6 7 7 8 9 10 11 12 14 16 19 21 22 23 22 21
73 71 70 66 69 68 57 55 53 51 45 41 38 41 33 28 26 26 25 24 20 18 15 11 7 5 3 7 11 12 10 8 8 8 9 10 10 12 13 13 15 16 18 22 24 23 23 23 23
74 75 73 71 67 66 60 58 57 55 49 45 42 40 37 33 32 25 25 22 20 17 15 12 10 8 7 9 12 12 11 9 9 10 11 11 12 13 14 16 17 18 21 22 25 23 23 23 24
72 76 77 76 73 67 62 61 60 58 54 49 46 42 41 35 33 32 28 25 22 18 17 15 13 11 11 12 12 15 14 13 12 12 12 14 14 15 17 18 18 20 23 24 23 23 22 23 25
60 74 78 79 76 71 64 66 63 61 58 52 48 45 41 38 33 33 32 28 27 24 18 16 15 14 15 15 13 17 18 17 15 15 15 16 17 18 18 18 19 21 24 23 22 23 23 24 27
37 67 75 78 76 74 66 66 65 63 61 55 51 52 50 42 39 35 32 35 34 29 23 19 19 18 19 18 14 18 18 16 17 17 18 19 20 20 20 20 20 23 25 23 24 24 24 25 28
35 45 66 74 73 73 68 68 68 64 62 58 55 55 50 47 44 45 40 35 32 34 33 23 23 22 21 20 16 20 17 16 18 19 19 21 22 22 21 22 23 24 24 25 25 25 26 28 30
29 32 44 67 69 69 67 69 68 66 64 61 57 55 52 53 48 48 44 39 39 35 33 32 30 28 25 24 24 24 20 19 19 21 20 21 22 22 22 23 25 25 25 26 26 27 29 30 31
22 25 33 51 61 63 65 69 70 69 66 62 60 58 56 52 57 48 46 44 43 42 41 40 37 34 33 30 31 24 21 20 21 21 23 22 23 24 24 25 26 27 27 27 26 28 30 31 33
20 28 21 38 49 54 63 67 70 69 67 63 62 59 55 55 51 49 49 47 47 48 44 41 40 36 38 36 36 25 21 21 22 21 24 24 24 25 26 26 27 28 28 27 28 31 32 33 36
18 18 24 29 39 47 58 62 67 70 68 66 64 61 57 53 51 52 46 48 45 39 38 38 39 40 34 28 30 28 25 23 23 23 23 25 26 27 28 28 29 29 29 28 30 33 35 36 38
17 18 19 26 32 40 53 58 64 67 69 67 64 62 60 55 48 54 50 52 48 44 40 39 40 39 36 33 34 31 28 26 25 25 25 26 28 29 31 31 31 31 31 32 33 35 36 38 39
18 7 20 20 31 35 45 53 59 63 68 67 66 61 60 57 59 44 50 60 48 45 50 54 48 43 38 36 34 34 30 29 27 27 27 28 30 31 33 34 34 34 34 35 37 37 39 40 42
12 10 11 19 24 34 37 49 54 60 65 68 67 65 66 61 51 52 59 43 46 46 66 57 51 43 43 39 37 35 32 31 29 28 29 30 30 33 34 35 36 37 37 38 39 40 40 42 42
13 5 12 17 21 30 33 47 53 57 61 68 68 68 63 65 65 55 49 39 42 53 51 42 45 44 47 33 35 34 34 36 32 31 31 32 33 34 35 36 38 39 40 41 41 42 42 41 43
7 9 10 15 19 26 32 43 52 53 58 64 67 65 59 60 52 50 72 60 46 51 46 41 33 27 24 28 35 41 30 31 32 33 34 35 35 36 37 39 41 42 43 44 44 44 43 43 45
2 3 9 15 17 22 30 40 47 52 56 59 63 65 65 55 60 42 38 43 50 58 39 44 51 39 26 25 24 26 27 33 33 33 35 36 36 39 41 42 44 46 46 46 45 44 44 45 47
3 1 9 14 15 16 25 35 41 47 52 56 64 64 64 75 45 29 34 37 35 31 29 26 25 26 29 29 26 29 32 34 33 36 37 39 40 42 44 46 47 48 48 46 45 46 46 48 49
6 9 6 10 12 12 19 30 35 42 47 52 58 63 61 66 60 42 33 41 39 31 35 36 27 26 30 33 31 32 33 34 34 37 40 42 43 45 47 48 48 47 46 47 49 49 50 50 48
7 11 13 6 7 10 14 21 28 35 41 48 52 56 60 59 57 52 56 39 33 27 23 26 26 25 28 29 32 35 37 36 38 41 44 46 47 49 50 48 47 49 51 51 53 54 53 49 47
6 4 6 9 4 8 13 15 17 24 31 40 45 52 51 54 52 51 59 59 55 46 29 30 31 30 30 32 35 38 39 40 43 44 48 49 50 49 49 49 51 53 54 56 56 55 53 53 53
13 7 4 4 3 0 7 13 16 18 22 30 37 41 46 47 48 49 54 54 47 40 37 38 36 34 36 36 38 41 43 45 47 48 50 48 49 49 51 52 54 57 57 56 56 57 58 57 57
12 14 11 6 5 4 8 6 13 17 19 21 27 35 39 43 45 43 43 41 38 37 40 44 46 45 45 42 44 46 47 48 49 49 48 50 52 53 55 57 58 58 59 60 61 61 62 63 64
8 8 6 6 5 6 6 8 12 16 18 15 18 26 32 35 37 39 39 38 40 41 40 42 44 46 47 49 50 49 50 47 48 50 53 55 56 58 59 59 61 62 63 65 67 69 70 71 72
Wind_Direction
228 227 226 225 223 225 217 210 215 216 218 209 211 206 199 200 189 182 172 164 154 149 142 133 124 115 112 112 117 118 106 88 75 60 47 38 38 32 25 20 18 17 18 13 9 7 3 1 358
228 225 225 225 224 225 220 209 210 217 216 207 210 207 198 199 185 179 173 165 157 151 142 131 118 113 106 102 100 90 63 40 36 44 40 27 22 27 21 20 13 12 3 359 357 354 350 347 344
227 223 224 224 223 224 217 212 212 216 217 206 210 213 206 202 193 183 177 170 162 154 145 132 114 109 94 77 55 38 5 332 319 330 347 13 16 15 20 3 355 355 354 354 355 351 346 338 335
228 223 221 225 225 225 217 211 216 213 215 207 213 214 209 207 203 190 182 175 169 160 153 146 124 119 101 77 44 6 340 319 299 295 310 336 342 332 337 340 339 348 353 353 350 346 347 341 336
225 225 222 223 224 223 216 212 216 214 214 209 214 209 212 208 208 198 188 182 179 172 170 166 143 137 117 64 34 3 327 310 297 290 288 289 277 281 294 314 330 337 342 343 345 348 345 340 335
222 224 222 221 223 223 213 212 216 214 211 210 207 211 211 207 206 207 195 191 191 187 189 184 165 156 141 4 350 341 322 299 287 279 273 273 270 272 282 301 318 327 329 331 336 337 336 336 332
220 221 223 223 224 224 212 212 214 216 212 210 207 211 210 208 206 209 199 203 197 202 204 200 192 174 200 328 336 334 315 292 278 276 272 271 271 273 281 296 308 314 320 325 330 332 329 329 330
218 218 218 222 224 223 213 213 212 216 212 210 207 207 209 208 210 209 200 204 204 205 209 209 211 211 269 318 321 320 312 290 275 270 273 273 273 276 282 294 301 308 313 322 327 329 328 328 330
218 215 215 219 221 221 215 213 212 214 213 210 209 207 210 206 213 210 206 205 204 207 213 217 220 235 268 297 298 310 307 286 277 273 271 276 280 281 284 290 296 305 314 320 325 325 325 325 332
217 215 214 216 217 217 212 211 211 213 212 209 209 207 211 209 207 211 210 214 211 211 217 222 226 247 267 280 288 306 299 286 277 270 271 275 280 283 283 287 295 304 312 319 321 321 318 324 331
215 214 214 216 216 215 211 210 211 212 211 209 209 211 209 210 208 214 208 207 211 214 217 223 234 250 262 270 282 297 302 282 273 271 270 277 281 280 283 286 295 303 312 315 316 316 317 324 330
214 214 215 215 215 214 211 209 208 212 211 209 208 213 206 210 208 212 219 220 219 217 219 228 236 244 255 263 274 296 296 281 271 269 270 275 275 278 281 285 293 302 308 309 313 314 315 321 326
216 213 216 217 217 215 209 209 207 209 211 209 208 212 205 201 209 212 208 214 221 226 230 227 234 238 244 257 276 288 283 276 273 271 271 277 274 277 278 283 291 300 304 309 311 310 313 318 322
220 216 218 218 217 215 209 208 207 207 209 208 208 211 218 201 205 215 214 213 219 227 224 226 233 236 241 254 272 285 266 270 271 267 271 278 275 274 277 283 291 295 302 307 305 306 311 314 319
206 198 232 220 219 217 210 207 207 207 208 208 208 210 218 217 211 208 210 215 219 224 228 240 234 239 252 252 271 267 266 270 271 269 272 278 277 276 278 283 287 293 299 301 301 303 306 310 315
210 221 219 221 219 217 211 207 206 206 208 206 208 210 216 225 223 217 217 216 220 226 234 236 236 245 255 259 269 253 259 268 271 272 273 278 277 276 279 282 285 291 295 297 299 301 305 310 313
212 216 219 219 220 216 213 208 207 205 207 206 209 210 213 219 225 225 227 217 219 227 229 230 238 248 253 256 257 246 257 267 270 273 275 276 276 276 277 280 284 289 292 293 296 300 304 308 310
215 223 218 217 215 216 213 208 208 206 206 206 207 210 213 217 223 228 230 235 230 225 226 237 244 238 249 255 246 252 257 265 270 271 276 276 274 275 278 280 283 286 289 292 295 297 301 304 307
206 188 223 222 215 211 210 209 209 207 207 206 206 206 213 216 222 226 233 229 238 248 249 233 232 241 243 246 245 255 261 267 268 269 272 274 274 274 278 281 283 285 287 290 293 297 300 302 306
214 243 212 221 222 212 206 203 208 206 207 207 207 208 212 215 219 216 230 231 240 243 246 248 239 234 241 237 246 255 262 266 265 267 270 273 274 276 279 282 284 285 285 288 292 296 299 301 304
211 239 222 212 213 209 204 198 205 205 207 209 210 208 214 218 224 237 239 230 229 241 252 273 261 259 242 234 251 262 253 264 262 263 269 273 275 278 280 281 283 285 287 288 292 295 299 302 304
216 251 226 209 204 197 202 197 202 205 208 209 211 212 216 216 223 228 239 248 241 244 249 258 245 241 243 257 263 260 249 254 259 263 266 271 276 280 280 282 283 285 287 290 293 298 302 303 303
258 307 216 199 192 194 192 200 197 203 206 209 210 213 212 212 211 215 219 224 247 241 245 256 265 263 256 255 261 245 252 256 261 266 270 274 279 281 282 283 286 289 291 295 299 300 301 302 302
359 47 187 191 181 194 199 203 202 200 205 208 209 213 214 221 235 245 237 223 239 242 241 252 234 242 264 251 253 258 256 261 268 272 274 277 279 280 283 287 289 292 296 299 298 297 297 299 301
85 131 146 184 181 196 201 206 207 200 203 209 212 215 216 221 234 233 245 244 239 243 248 250 266 263 265 251 255 263 267 268 271 274 277 279 281 284 285 288 293 296 296 294 294 295 297 297 296
119 133 85 129 200 203 198 206 211 208 205 207 212 219 221 224 228 234 238 230 230 257 262 264 258 248 250 256 261 266 270 273 274 276 279 281 283 286 289 295 296 294 292 294 294 295 294 292 292
112 172 149 91 126 201 209 204 210 212 213 210 212 219 223 226 231 233 233 243 250 262 259 254 247 249 256 263 267 266 268 272 275 278 279 281 285 291 294 292 290 291 292 293 293 292 292 293 292
89 105 144 76 48 348 220 212 201 201 210 214 213 218 224 228 232 233 236 243 251 254 249 247 246 258 263 264 265 266 268 273 275 278 282 288 291 287 287 288 289 290 290 291 291 292 291 291 290
81 102 100 104 93 113 152 170 210 205 196 208 214 217 221 228 233 237 242 247 246 248 248 248 249 259 265 267 268 268 271 275 281 285 286 284 282 283 286 287 287 289 290 291 291 290 289 289 287
66 34 56 80 87 108 143 153 191 202 203 210 216 216 219 222 228 233 236 239 242 244 246 246 250 252 257 262 269 274 277 283 283 281 279 280 283 286 286 288 288 290 291 291 291 290 289 288 288